Weather History for Vancouver International Air-Port, B. C., British Columbia

Change the Weather History Date:

Monday, September 9, 2013

  Actual Average Record
Temperature  
Mean Temperature 62 °F -  
Max Temperature 70 °F 62 °F - ()
Min Temperature 54 °F 48 °F - ()
Degree Days  
Heating Degree Days 3    
Growing Degree Days 12 (Base 50)    
Moisture  
Dew Point 58 °F    
Average Humidity 90    
Maximum Humidity 100    
Minimum Humidity 66    
Precipitation  
Precipitation 0.00 in 0.10 in - ()
Sea Level Pressure  
Sea Level Pressure 30.05 in    
Wind  
Wind Speed 5 mph ()    
Max Wind Speed 12 mph    
Max Gust Speed -    
Visibility 8.2 miles    
Events Fog    
T = Trace of Precipitation, MM = Missing Value Source: Averaged Metar Reports

Daily Weather History Graph

Daily Weather History Graph

Search for Another Location

Airport:

Trip Planner

Search our weather history database for the weather conditions in past years. The results will help you decide how hot, cold, wet, or windy it might be!

Date:

Astronomy

Sep. 09, 2013 Rise Set
Actual Time 6:40 AM PDT 7:37 PM PDT
Civil Twilight 6:08 AM PDT 8:09 PM PDT
Nautical Twilight 5:29 AM PDT 8:48 PM PDT
Astronomical Twilight 4:48 AM PDT 9:29 PM PDT
Moon 11:36 AM PDT (9/9) 9:29 PM PDT (9/9)
Length of Visible Light 14h 01m
Length of Day
12h 56m
Waxing Crescent, 20% of the Moon is Illuminated
Sep 9
Waxing Crescent
Sep 12
First Quarter
Sep 19
Full
Sep 26
Last Quarter
Oct 4
New

Hourly Weather History & Observations

Time (PDT) Temp. Dew Point Humidity Pressure Visibility Wind Dir Wind Speed Gust Speed Precip Events Conditions
12:00 AM 60.8 °F 59.0 °F 94% 30.04 in 12.0 mi ESE 8.1 mph - N/A   Clear
1:00 AM 60.8 °F 57.2 °F 88% 30.05 in 12.0 mi ESE 4.6 mph - N/A   Clear
2:00 AM 59.0 °F 57.2 °F 94% 30.05 in 12.0 mi SSW 5.8 mph - N/A   Clear
3:00 AM 59.0 °F 57.2 °F 94% 30.04 in 12.0 mi SE 4.6 mph - N/A   Clear
4:00 AM 57.2 °F 55.4 °F 94% 30.05 in 12.0 mi ESE 2.3 mph - N/A   Clear
5:00 AM 57 °F 56 °F 94% 30.06 in 12 mi East 4.6 mph - -  
5:00 AM 57.2 °F 55.4 °F 94% 30.05 in 12.0 mi East 4.6 mph - N/A   Clear
6:00 AM 57.2 °F 55.4 °F 94% 30.06 in 12.0 mi SE 3.5 mph - N/A   Partly Cloudy
6:23 AM 55.4 °F 55.4 °F 100% 30.06 in 10.0 mi SE 4.6 mph - N/A   Partly Cloudy
7:00 AM 55.4 °F 53.6 °F 94% 30.05 in 3.0 mi East 4.6 mph - N/A Fog Patches of Fog
7:03 AM 55.4 °F 55.4 °F 100% 30.06 in 1.0 mi East 4.6 mph - N/A Fog Patches of Fog
7:07 AM 55.4 °F 55.4 °F 100% 30.06 in 0.5 mi East 5.8 mph - N/A Fog Patches of Fog
7:18 AM 55.4 °F 53.6 °F 94% 30.06 in 0.2 mi East 4.6 mph - N/A Fog Fog
8:00 AM 55.4 °F 55.4 °F 100% 30.07 in 0.2 mi East 4.6 mph - N/A Fog Fog
8:55 AM 57.2 °F 57.2 °F 100% 30.08 in 0.5 mi SSE 4.6 mph - N/A Fog Fog
9:00 AM 57.2 °F 57.2 °F 100% 30.08 in 0.5 mi SE 3.5 mph - N/A Fog Fog
9:08 AM 59.0 °F 57.2 °F 94% 30.08 in 0.8 mi SE 2.3 mph - N/A   Mostly Cloudy
9:20 AM 59.0 °F 59.0 °F 100% 30.08 in 1.5 mi South 2.3 mph - N/A   Mostly Cloudy
9:53 AM 62.6 °F 60.8 °F 94% 30.08 in 3.0 mi South 3.5 mph - N/A   Scattered Clouds
10:00 AM 60.8 °F 59.0 °F 94% 30.08 in 4.0 mi SSW 2.3 mph - N/A   Partly Cloudy
11:00 AM 63 °F 60 °F 85% 30.08 in 6 mi WSW 6.9 mph - -   Partly Cloudy
11:00 AM 62.6 °F 59.0 °F 88% 30.08 in 6.0 mi WSW 6.9 mph - N/A   Scattered Clouds
12:00 PM 66.2 °F 60.8 °F 83% 30.08 in 10.0 mi WSW 6.9 mph - N/A   Scattered Clouds
1:00 PM 66.2 °F 60.8 °F 83% 30.06 in 15.0 mi West 8.1 mph - N/A   Scattered Clouds
2:00 PM 68.0 °F 62.6 °F 83% 30.05 in 20.0 mi WNW 9.2 mph - N/A   Scattered Clouds
3:00 PM 69.8 °F 60.8 °F 73% 30.04 in 30.0 mi WNW 11.5 mph - N/A   Scattered Clouds
4:00 PM 69.8 °F 60.8 °F 73% 30.02 in 30.0 mi NW 11.5 mph - N/A   Partly Cloudy
5:00 PM 69 °F 60 °F 66% 30.02 in 28 mi WNW 10.4 mph - -   Scattered Clouds
5:00 PM 69.8 °F 60.8 °F 73% 30.01 in 30.0 mi WNW 11.5 mph - N/A   Scattered Clouds
6:00 PM 68.0 °F 60.8 °F 78% 30.00 in 30.0 mi WNW 10.4 mph - N/A   Scattered Clouds
7:00 PM 66.2 °F 60.8 °F 83% 29.99 in 30.0 mi WNW 6.9 mph - N/A   Partly Cloudy
8:00 PM 62.6 °F 59.0 °F 88% 30.00 in 30.0 mi WNW 5.8 mph - N/A   Partly Cloudy
9:00 PM 62.6 °F 60.8 °F 94% 30.01 in 15.0 mi WNW 2.3 mph - N/A   Clear
10:00 PM 62.6 °F 59.0 °F 88% 30.01 in 15.0 mi WSW 3.5 mph - N/A   Clear
11:00 PM 62 °F 59 °F 85% 30.01 in 15 mi West 4.6 mph - -  
11:00 PM 60.8 °F 59.0 °F 94% 30.01 in 15.0 mi WNW 4.6 mph - N/A   Clear